User: anonymous   Login
Location: Lone Pine Community Mobile Home Park
(42.7367°N, 73.8567°W)
Time: 08:28:09
(UTC+00:00)
Language:

Cosmos 1689 Rocket - Orbit

View from above orbital plane
View from above orbital plane
View from above satellite
View from above satellite

Ground track
Ground track

The orbit data is extracted from the following two-line orbital elements,

1 16111U 85090B   21019.08099832  .00008687  00000-0  77935-4 0  9998
2 16111  97.4818 211.6743 0009940 178.4558 181.6736 15.68504693948777
Epoch (UTC): 19 January 2021 01:56:38
Eccentricity: 0.0009940
inclination: 97.4818°
perigee height: 356 km
apogee height: 370 km
right ascension of ascending node: 211.6743°
argument of perigee: 178.4558°
revolutions per day: 15.68504693
mean anomaly at epoch: 181.6736°
orbit number at epoch: 94877

The dashed part of the orbit path shows where the satellite is in the earth's shadow,  

DLR